�N����,����,�~����,�C��,���x,�C��,����,���ϕ���,�ő�u�ԕ���,�ő厞����,���˗�,�I�_���x,�n�����x,�ő啗���N��,DTYPE
"18/11/06","00:10",0.0,16.4,84.7,1015.4,340.3,1.8,3.1,350.6,0.00,13.9,16.9,"00:02:00",1
"18/11/06","00:20",0.0,16.4,85.1,1015.4,332.4,2.0,3.2,336.8,0.00,13.9,16.7,"00:18:40",1
"18/11/06","00:30",0.0,16.3,85.4,1015.6,334.2,2.0,3.7,345.2,0.00,13.9,17.1,"00:28:32",1
"18/11/06","00:40",0.0,16.3,85.5,1015.4,334.5,2.0,3.7,340.4,0.00,13.9,17.0,"00:34:40",1
"18/11/06","00:50",0.0,16.1,86.8,1015.4,336.0,1.5,3.3,332.4,0.00,13.9,16.6,"00:49:04",1
"18/11/06","01:00",0.2,15.7,88.4,1015.4,329.9,2.1,3.7,329.2,0.00,13.8,16.7,"00:56:32",1
"18/11/06","01:10",0.2,15.5,89.8,1015.4,332.6,2.6,4.9,330.9,0.00,13.9,16.9,"01:09:22",1
"18/11/06","01:20",0.0,15.4,90.8,1015.2,334.9,2.5,4.3,330.0,0.00,13.9,16.7,"01:13:48",1
"18/11/06","01:30",0.0,15.4,91.6,1014.7,320.1,1.7,3.1,332.5,0.00,14.1,16.7,"01:24:40",1
"18/11/06","01:40",0.2,15.3,92.3,1015.2,295.7,1.2,2.7,321.5,0.00,14.1,16.6,"01:31:20",1
"18/11/06","01:50",0.2,15.3,92.7,1015.4,283.6,1.1,2.2,323.6,0.00,14.2,16.4,"01:40:02",1
"18/11/06","02:00",0.8,15.4,93.0,1015.2,339.0,1.7,2.7,340.8,0.00,14.3,16.7,"01:52:24",1
"18/11/06","02:10",0.2,15.3,93.4,1015.2,297.7,1.5,2.6,319.1,0.00,14.3,16.6,"02:02:24",1
"18/11/06","02:20",1.0,15.3,93.7,1014.9,305.7,1.7,2.9,318.4,0.00,14.3,16.6,"02:14:40",1
"18/11/06","02:30",0.6,15.3,93.9,1015.2,330.2,1.5,2.5,338.9,0.00,14.4,16.5,"02:29:20",1
"18/11/06","02:40",0.4,15.2,94.1,1014.9,329.4,2.1,2.9,327.5,0.00,14.3,16.6,"02:38:16",1
"18/11/06","02:50",0.4,15.2,94.4,1014.9,327.2,2.2,4.0,339.0,0.00,14.3,16.5,"02:47:38",1
"18/11/06","03:00",0.0,15.2,94.6,1014.9,317.2,2.0,4.2,344.6,0.00,14.4,16.6,"02:54:10",1
"18/11/06","03:10",0.2,15.2,94.7,1014.9,319.7,1.8,4.1,327.1,0.00,14.4,16.4,"03:04:10",1
"18/11/06","03:20",0.8,15.3,94.9,1015.2,321.0,2.1,3.5,325.3,0.00,14.5,16.7,"03:14:00",1
"18/11/06","03:30",0.4,15.2,95.0,1014.9,326.4,2.1,3.6,351.0,0.00,14.4,16.4,"03:20:24",1
"18/11/06","03:40",0.6,15.2,95.1,1014.7,320.2,2.0,3.9,343.0,0.00,14.5,16.4,"03:39:04",1
"18/11/06","03:50",0.6,15.2,95.2,1014.9,314.4,1.7,3.5,343.0,0.00,14.5,16.2,"03:40:08",1
"18/11/06","04:00",0.6,15.2,95.3,1015.2,307.0,0.6,1.4,305.1,0.00,14.5,16.4,"03:50:40",1
"18/11/06","04:10",0.8,15.2,95.5,1015.2,271.6,0.7,1.9,322.9,0.00,14.5,16.5,"04:08:24",1
"18/11/06","04:20",0.6,15.2,95.5,1014.9,322.7,1.2,2.0,321.6,0.00,14.5,16.5,"04:19:04",1
"18/11/06","04:30",0.8,15.2,95.6,1015.2,308.7,1.3,2.4,342.8,0.00,14.5,16.3,"04:20:16",1
"18/11/06","04:40",1.0,15.1,95.7,1015.2,296.0,1.3,2.6,309.4,0.00,14.5,16.2,"04:31:28",1
"18/11/06","04:50",0.8,15.1,95.8,1014.9,313.0,1.5,2.7,330.4,0.00,14.5,16.5,"04:46:08",1
"18/11/06","05:00",0.8,15.1,95.9,1015.6,323.2,1.5,2.9,337.9,0.00,14.5,16.3,"04:57:36",1
"18/11/06","05:10",0.4,15.1,96.0,1015.2,322.2,1.3,2.4,324.9,0.00,14.5,16.3,"05:05:36",1
"18/11/06","05:20",0.2,15.1,96.0,1015.6,331.6,1.3,2.5,333.9,0.00,14.5,16.4,"05:12:32",1
"18/11/06","05:30",0.2,15.1,96.2,1015.6,287.0,0.3,1.4,308.8,0.00,14.5,16.2,"05:20:32",1
"18/11/06","05:40",0.0,15.1,96.2,1015.9,323.1,1.0,1.9,333.6,0.00,14.5,16.3,"05:37:36",1
"18/11/06","05:50",0.0,15.1,96.2,1015.9,320.2,1.5,3.2,342.1,0.00,14.5,16.3,"05:41:36",1
"18/11/06","06:00",0.2,15.1,96.3,1015.9,317.7,1.1,2.5,338.1,0.00,14.6,16.1,"05:56:00",1
"18/11/06","06:10",0.0,15.1,96.3,1016.1,311.9,1.1,2.0,321.2,0.00,14.6,16.4,"06:05:44",1
"18/11/06","06:20",0.2,15.1,96.4,1016.4,298.2,0.8,1.7,322.7,0.00,14.6,16.3,"06:12:00",1
"18/11/06","06:30",0.2,15.1,96.4,1016.1,324.6,1.3,2.2,333.3,0.00,14.6,16.1,"06:25:20",1
"18/11/06","06:40",0.0,15.1,96.5,1015.9,325.2,0.8,1.6,325.8,0.00,14.6,16.4,"06:30:08",1
"18/11/06","06:50",0.2,15.1,96.7,1015.9,248.7,1.3,2.8,231.2,0.00,14.6,16.2,"06:47:28",1
"18/11/06","07:00",0.0,15.1,96.6,1015.6,274.9,0.7,1.7,237.2,0.00,14.6,16.4,"06:50:24",1
"18/11/06","07:10",0.0,15.2,96.7,1015.6,315.7,0.8,1.9,323.0,0.00,14.7,16.2,"07:07:28",1
"18/11/06","07:20",0.0,15.2,96.6,1016.4,304.4,1.2,2.5,325.6,0.00,14.7,16.4,"07:10:02",1
"18/11/06","07:30",0.0,15.2,96.8,1016.1,324.8,2.2,3.5,332.1,0.00,14.7,16.3,"07:29:04",1
"18/11/06","07:40",0.0,15.3,96.8,1016.4,313.8,1.6,3.1,316.6,0.01,14.8,16.3,"07:31:04",1
"18/11/06","07:50",0.0,15.5,96.6,1016.4,261.1,0.5,0.9,259.8,0.02,15.0,16.5,"07:44:08",1
"18/11/06","08:00",0.0,15.6,96.4,1016.6,318.5,1.2,2.2,328.1,0.03,15.1,16.2,"07:59:44",1
"18/11/06","08:10",0.0,15.6,96.5,1017.1,319.1,2.1,3.6,330.5,0.03,15.1,16.4,"08:05:36",1
"18/11/06","08:20",0.0,15.7,96.5,1016.8,316.6,1.7,2.9,329.7,0.03,15.2,16.1,"08:13:20",1
"18/11/06","08:30",0.0,15.8,96.6,1016.8,335.4,1.3,2.2,336.3,0.04,15.3,16.4,"08:21:44",1
"18/11/06","08:40",0.0,15.9,96.5,1016.8,332.4,1.6,2.8,322.6,0.05,15.4,16.5,"08:39:44",1
"18/11/06","08:50",0.0,16.0,96.2,1017.1,334.9,1.8,2.9,349.8,0.07,15.4,16.5,"08:40:24",1
"18/11/06","09:00",0.0,16.1,96.2,1016.8,328.8,2.0,2.8,337.2,0.07,15.5,16.5,"08:58:48",1
"18/11/06","09:10",0.0,16.4,95.8,1016.8,280.6,1.2,1.9,326.5,0.10,15.8,16.6,"09:00:32",1
"18/11/06","09:20",0.0,17.2,94.9,1017.1,285.3,1.1,1.9,301.0,0.24,16.4,16.8,"09:11:36",1
"18/11/06","09:30",0.0,17.4,93.7,1016.8,262.3,1.1,1.9,241.9,0.27,16.4,16.8,"09:26:40",1
"18/11/06","09:40",0.0,17.6,91.3,1016.8,261.3,0.7,1.7,262.8,0.13,16.2,17.0,"09:33:04",1
"18/11/06","09:50",0.0,17.7,89.0,1016.6,273.9,0.6,1.6,240.5,0.10,15.9,17.1,"09:41:52",1
"18/11/06","10:00",0.0,17.7,88.1,1016.8,212.2,0.3,1.0,212.9,0.07,15.7,17.0,"09:56:56",1
"18/11/06","10:10",0.0,17.8,89.3,1017.1,263.3,1.0,2.7,327.4,0.11,16.1,17.2,"10:09:36",1
"18/11/06","10:20",0.0,18.9,87.2,1016.8,306.5,1.1,2.6,334.8,0.34,16.8,17.2,"10:14:56",1
"18/11/06","10:30",0.0,18.6,85.2,1016.6,306.5,1.0,1.8,320.1,0.27,16.1,17.3,"10:22:08",1
"18/11/06","10:40",0.0,19.2,82.1,1016.6,235.4,1.0,2.1,232.2,0.39,16.1,17.5,"10:35:44",1
"18/11/06","10:50",0.0,19.7,81.0,1016.6,282.5,0.8,2.2,336.1,0.39,16.4,17.7,"10:48:40",1
"18/11/06","11:00",0.0,20.1,79.9,1016.1,279.2,0.7,1.9,331.1,0.41,16.6,18.2,"10:50:08",1
"18/11/06","11:10",0.0,20.6,76.9,1015.9,245.3,0.8,2.2,241.5,0.42,16.4,18.1,"11:09:00",1
"18/11/06","11:20",0.0,20.9,76.1,1015.4,226.6,1.2,2.9,226.5,0.45,16.6,18.5,"11:15:52",1
"18/11/06","11:30",0.0,21.3,73.7,1015.4,335.8,1.1,2.2,318.5,0.43,16.5,18.7,"11:24:40",1
"18/11/06","11:40",0.0,21.0,72.5,1014.7,80.4,1.0,2.6,97.2,0.27,15.9,18.9,"11:35:04",1
"18/11/06","11:50",0.0,20.5,73.6,1015.2,88.9,1.2,3.2,118.9,0.14,15.7,18.8,"11:48:00",1
"18/11/06","12:00",0.0,20.8,73.5,1014.9,101.3,1.1,3.1,116.9,0.18,15.9,19.0,"11:54:24",1
"18/11/06","12:10",0.0,21.2,71.0,1014.9,12.3,0.8,1.9,3.9,0.20,15.8,19.1,"12:04:40",1
"18/11/06","12:20",0.0,21.0,69.0,1014.7,356.9,1.3,2.7,306.4,0.13,15.1,19.1,"12:10:40",1
"18/11/06","12:30",0.0,22.3,62.5,1014.5,7.5,2.0,4.3,350.8,0.41,14.8,19.1,"12:22:40",1
"18/11/06","12:40",0.0,21.3,66.4,1014.7,340.4,3.4,5.8,336.3,0.19,14.8,19.2,"12:33:20",1
"18/11/06","12:50",0.0,22.4,63.5,1014.2,322.1,2.7,4.7,313.4,0.45,15.2,19.1,"12:49:36",1
"18/11/06","13:00",0.0,22.3,59.8,1014.5,5.9,2.6,4.9,348.7,0.45,14.2,19.3,"12:54:40",1
"18/11/06","13:10",0.0,22.5,60.7,1014.2,348.2,2.6,5.1,353.4,0.40,14.6,19.6,"13:04:16",1
"18/11/06","13:20",0.0,22.8,59.8,1014.2,359.6,1.8,3.6,3.2,0.44,14.6,19.5,"13:19:04",1
"18/11/06","13:30",0.0,21.3,62.2,1014.0,352.4,2.7,6.0,323.8,0.17,13.8,19.7,"13:29:04",1
"18/11/06","13:40",0.0,21.6,61.6,1014.5,355.8,2.3,4.7,335.3,0.19,14.0,19.8,"13:32:24",1
"18/11/06","13:50",0.0,21.8,61.6,1014.0,344.8,2.3,4.2,349.5,0.28,14.1,19.8,"13:43:52",1
"18/11/06","14:00",0.0,22.6,58.7,1013.8,340.8,1.5,3.9,333.1,0.38,14.2,19.9,"13:50:16",1
"18/11/06","14:10",0.0,21.5,61.1,1013.5,344.8,2.5,4.7,354.5,0.23,13.7,19.7,"14:00:40",1
"18/11/06","14:20",0.0,22.4,59.8,1013.8,333.0,2.6,5.6,317.9,0.33,14.2,20.0,"14:10:32",1
"18/11/06","14:30",0.0,22.0,58.6,1014.0,341.5,2.8,4.8,334.2,0.28,13.6,20.0,"14:24:40",1
"18/11/06","14:40",0.0,21.0,58.9,1014.2,347.8,3.2,5.5,327.7,0.06,12.7,20.0,"14:37:52",1
"18/11/06","14:50",0.0,21.0,60.1,1014.2,343.5,2.8,6.5,340.1,0.14,13.0,19.8,"14:46:48",1
"18/11/06","15:00",0.0,20.8,60.6,1014.9,346.3,2.3,5.5,349.6,0.09,13.0,19.7,"14:51:12",1
"18/11/06","15:10",0.0,21.2,59.1,1014.9,342.6,2.2,4.5,352.8,0.18,12.9,19.7,"15:09:44",1
"18/11/06","15:20",0.0,20.9,58.5,1014.7,358.7,2.6,5.5,348.2,0.18,12.5,19.6,"15:16:24",1
"18/11/06","15:30",0.0,20.8,59.8,1015.2,344.3,2.3,4.8,337.9,0.14,12.7,19.7,"15:20:40",1
"18/11/06","15:40",0.0,20.4,60.9,1014.9,338.1,3.6,7.3,2.3,0.13,12.6,19.8,"15:31:28",1
"18/11/06","15:50",0.0,20.2,62.1,1014.7,342.3,3.1,7.3,345.9,0.10,12.8,19.3,"15:42:56",1
"18/11/06","16:00",0.0,20.5,59.9,1014.9,4.9,1.7,4.2,30.1,0.08,12.5,19.4,"15:58:00",1
"18/11/06","16:10",0.0,20.2,59.7,1014.9,331.5,1.8,3.9,314.4,0.06,12.2,19.5,"16:04:56",1
"18/11/06","16:20",0.0,20.1,61.1,1014.9,340.9,1.5,3.5,342.8,0.04,12.4,19.4,"16:17:36",1
"18/11/06","16:30",0.0,19.8,61.9,1014.9,343.1,1.7,3.9,351.3,0.03,12.3,19.0,"16:26:32",1
"18/11/06","16:40",0.0,19.4,63.3,1015.2,330.1,2.3,6.8,343.3,0.01,12.3,19.4,"16:33:44",1
"18/11/06","16:50",0.0,18.9,65.0,1015.4,326.5,2.1,3.7,313.1,0.00,12.2,19.1,"16:47:20",1
"18/11/06","17:00",0.0,18.6,66.3,1015.4,325.5,2.1,3.7,322.8,0.00,12.2,18.8,"16:55:20",1
"18/11/06","17:10",0.0,18.4,67.1,1015.4,328.1,2.2,3.4,322.9,0.00,12.2,18.8,"17:02:00",1
"18/11/06","17:20",0.0,18.1,68.9,1015.6,331.3,1.6,4.3,337.7,0.00,12.3,18.6,"17:18:56",1
"18/11/06","17:30",0.0,18.0,68.8,1015.6,332.7,1.8,3.2,1.7,0.00,12.2,18.6,"17:25:36",1
"18/11/06","17:40",0.0,17.5,70.2,1015.6,290.7,1.3,2.7,311.0,0.00,12.1,18.5,"17:37:12",1
"18/11/06","17:50",0.0,17.3,72.2,1015.6,321.2,2.0,3.2,342.1,0.00,12.3,18.5,"17:48:16",1
"18/11/06","18:00",0.0,17.4,72.0,1015.9,320.1,2.3,4.4,338.6,0.00,12.3,18.2,"17:52:40",1
"18/11/06","18:10",0.0,17.3,72.3,1016.1,318.2,1.7,3.1,340.1,0.00,12.3,18.2,"18:02:40",1
"18/11/06","18:20",0.0,17.2,73.3,1016.4,343.9,1.8,3.5,323.4,0.00,12.4,18.1,"18:18:24",1
"18/11/06","18:30",0.0,17.1,73.5,1016.4,334.9,1.3,3.2,340.5,0.00,12.4,18.0,"18:26:40",1
"18/11/06","18:40",0.0,16.8,73.9,1016.1,309.9,1.6,2.9,346.3,0.00,12.2,17.8,"18:35:20",1
"18/11/06","18:50",0.0,16.8,75.9,1016.1,313.4,2.1,4.4,320.8,0.00,12.6,17.7,"18:48:00",1
"18/11/06","19:00",0.0,17.1,75.3,1016.4,312.0,2.5,5.1,344.3,0.00,12.7,17.7,"18:58:24",1
"18/11/06","19:10",0.0,17.1,74.4,1016.4,325.6,2.0,4.5,357.4,0.00,12.6,17.8,"19:03:04",1
"18/11/06","19:20",0.0,16.7,75.7,1016.4,286.6,0.6,1.3,246.7,0.00,12.4,17.7,"19:11:28",1
"18/11/06","19:30",0.0,16.4,75.7,1016.8,335.4,1.6,2.6,331.8,0.00,12.1,17.4,"19:24:24",1
"18/11/06","19:40",0.0,16.4,77.8,1016.8,316.5,1.8,4.5,326.2,0.00,12.6,17.4,"19:38:32",1
"18/11/06","19:50",0.0,16.7,76.7,1016.6,320.6,2.5,4.5,339.0,0.00,12.6,17.4,"19:46:40",1
"18/11/06","20:00",0.0,16.7,76.3,1016.6,316.8,2.5,6.5,339.8,0.00,12.6,17.4,"19:50:02",1
"18/11/06","20:10",0.0,16.7,76.0,1016.8,323.9,2.8,5.4,337.8,0.00,12.5,17.0,"20:00:32",1
"18/11/06","20:20",0.0,16.6,75.9,1016.6,332.9,2.7,5.1,311.2,0.00,12.4,17.3,"20:15:04",1
"18/11/06","20:30",0.0,16.5,76.2,1016.8,328.9,3.1,6.6,343.0,0.00,12.3,17.3,"20:28:32",1
"18/11/06","20:40",0.0,16.4,76.9,1016.8,336.1,3.5,6.5,328.3,0.00,12.4,17.1,"20:37:52",1
"18/11/06","20:50",0.0,16.5,76.1,1016.6,333.3,4.1,6.5,315.8,0.00,12.3,17.0,"20:49:44",1
"18/11/06","21:00",0.0,16.5,75.4,1016.8,336.1,4.2,6.4,330.6,0.00,12.2,16.9,"20:55:08",1
"18/11/06","21:10",0.0,16.2,76.0,1016.6,330.6,3.2,5.5,335.5,0.00,12.0,16.8,"21:06:00",1
"18/11/06","21:20",0.0,16.0,77.2,1016.8,338.5,2.0,4.2,344.9,0.00,12.1,16.9,"21:18:32",1
"18/11/06","21:30",0.0,16.0,77.4,1017.1,324.8,2.5,4.2,302.9,0.00,12.1,16.7,"21:29:22",1
"18/11/06","21:40",0.0,16.2,76.9,1016.8,331.5,4.1,6.5,330.4,0.00,12.2,16.6,"21:35:16",1
"18/11/06","21:50",0.0,16.4,76.2,1016.8,334.6,4.7,8.6,325.9,0.00,12.2,16.7,"21:42:32",1
"18/11/06","22:00",0.0,16.1,76.1,1017.3,332.5,3.4,5.2,340.1,0.00,11.9,16.6,"21:59:12",1
"18/11/06","22:10",0.0,15.8,76.8,1017.3,331.5,2.6,4.5,323.3,0.00,11.8,16.7,"22:00:40",1
"18/11/06","22:20",0.0,15.5,79.0,1017.3,332.3,2.6,4.3,334.0,0.00,11.9,16.6,"22:16:32",1
"18/11/06","22:30",0.0,15.3,80.6,1017.1,329.3,2.8,4.5,331.4,0.00,12.0,16.6,"22:24:32",1
"18/11/06","22:40",0.0,15.1,82.0,1017.1,327.3,2.2,4.0,343.1,0.00,12.1,16.4,"22:39:52",1
"18/11/06","22:50",0.0,15.1,82.6,1017.3,332.5,3.5,4.5,326.8,0.00,12.2,16.5,"22:40:32",1
"18/11/06","23:00",0.0,15.0,82.9,1016.6,329.7,4.1,6.4,316.2,0.00,12.2,16.3,"22:52:18",1
"18/11/06","23:10",0.0,14.9,83.4,1016.8,330.8,4.0,7.2,335.4,0.00,12.2,16.7,"23:04:30",1
"18/11/06","23:20",0.0,14.8,83.7,1016.8,334.6,3.2,5.6,341.9,0.00,12.1,16.1,"23:17:56",1
"18/11/06","23:30",0.0,14.8,84.1,1017.1,333.8,2.8,4.9,335.8,0.00,12.2,16.2,"23:22:42",1
"18/11/06","23:40",0.0,14.6,84.4,1017.3,331.0,2.3,4.3,358.4,0.00,12.0,16.3,"23:30:48",1
"18/11/06","23:50",0.0,14.6,84.9,1017.3,330.7,2.7,4.1,345.0,0.00,12.1,16.4,"23:46:42",1
"18/11/06","24:00",0.0,14.5,85.0,1017.1,328.0,2.5,4.5,337.5,0.00,12.1,16.2,"23:53:12",1
